DW5679 Weather Reports


Display with metric or nautical units.
time (UTC)temp
F
wind
direction
speed
MPH
gust
MPH
rain 1hr
in
rain 24hr
in
rain mn
in
humidity
%
barometer
mb
20260510153105 72 37 0.0 1.0 0.00 0.02 0.02 86 1015.5
20260510153023 72 53 0.0 1.0 0.00 0.02 0.02 86 1015.4
20260510151516 71 53 0.0 2.0 0.00 0.02 0.02 88 1015.4
20260510151501 71 23 0.0 2.0 0.00 0.02 0.02 88 1015.5
20260510150125 70 25 0.0 1.0 0.00 0.02 0.02 90 1015.5
20260510150014 70 55 0.0 1.0 0.00 0.02 0.02 90 1015.4
20260510144557 69 22 0.0 1.0 0.00 0.02 0.02 92 1015.7
20260510144520 69 52 0.0 1.0 0.00 0.02 0.02 91 1015.4
20260510143054 68 32 0.0 1.0 0.00 0.02 0.02 92 1015.6
20260510143025 68 62 0.0 1.0 0.00 0.02 0.02 91 1015.4
20260510141552 68 47 0.0 3.0 0.00 0.02 0.02 93 1015.5
20260510141526 68 73 1.0 3.0 0.00 0.02 0.02 93 1015.3
20260510140051 67 7 0.0 6.0 0.00 0.02 0.02 94 1015.4
20260510140026 67 63 0.0 6.0 0.00 0.02 0.02 94 1015.2
20260510134550 67 26 1.0 4.0 0.00 0.02 0.02 95 1015.3
20260510134518 67 36 1.0 5.0 0.00 0.02 0.02 95 1015.1
20260510133048 67 78 0.0 4.0 0.00 0.02 0.02 95 1015.2
20260510133015 67 56 0.0 4.0 0.00 0.02 0.02 95 1015.0
20260510131546 66 40 0.0 1.0 0.00 0.02 0.02 95 1014.6
20260510131527 66 69 0.0 1.0 0.00 0.02 0.02 95 1014.4
20260510130046 66 22 0.0 0.0 0.00 0.02 0.02 97 1014.5
20260510130028 66 52 0.0 0.0 0.00 0.02 0.02 96 1014.2
20260510124547 66 22 0.0 0.0 0.01 0.02 0.02 96 1014.6
20260510124526 66 52 0.0 0.0 0.02 0.02 0.02 96 1014.3
20260510123045 66 22 0.0 0.0 0.02 0.02 0.02 96 1014.3
20260510123024 66 52 0.0 0.0 0.02 0.02 0.02 95 1014.1
20260510121544 66 16 0.0 4.0 0.02 0.02 0.02 96 1014.6
20260510121520 66 46 0.0 4.0 0.02 0.02 0.02 95 1014.4
20260510120146 66 358 0.0 2.0 0.02 0.02 0.02 96 1014.5
20260510120020 66 59 0.0 1.0 0.02 0.02 0.02 96 1014.4
20260510114551 66 352 0.0 4.0 0.01 0.01 0.01 96 1014.7
20260510114512 66 16 1.0 4.0 0.00 0.00 0.00 96 1014.4
20260510113044 66 358 0.0 3.0 0.00 0.00 0.00 96 1014.7
20260510113028 66 24 0.0 3.0 0.00 0.00 0.00 96 1014.5
20260510111543 65 27 0.0 2.0 0.00 0.00 0.00 96 1014.8
20260510111526 65 57 0.0 2.0 0.00 0.00 0.00 96 1014.5
20260510110048 65 33 0.0 0.0 0.00 0.00 0.00 95 1014.4
20260510110027 65 63 0.0 0.0 0.00 0.00 0.00 95 1014.2
20260510104542 65 33 0.0 0.0 0.00 0.00 0.00 95 1014.5
20260510104522 65 62 0.0 0.0 0.00 0.00 0.00 95 1014.4
20260510103043 65 15 0.0 0.0 0.00 0.00 0.00 96 1014.5
20260510103021 65 45 0.0 1.0 0.00 0.00 0.00 95 1014.2
20260510101543 65 22 0.0 0.0 0.00 0.00 0.00 96 1014.5
20260510101517 65 52 0.0 0.0 0.00 0.00 0.00 95 1014.2
20260510100044 65 22 0.0 0.0 0.00 0.00 0.00 95 1014.7
20260510100031 65 52 0.0 0.0 0.00 0.00 0.00 95 1014.4
20260510094546 65 22 0.0 0.0 0.00 0.00 0.00 95 1014.6
20260510094528 65 52 0.0 0.0 0.00 0.00 0.00 94 1014.3
20260510093037 65 22 0.0 0.0 0.00 0.00 0.00 95 1014.4
20260510093027 65 52 0.0 0.0 0.00 0.00 0.00 94 1014.2
20260510091541 65 13 0.0 0.0 0.00 0.00 0.00 95 1014.5
20260510091528 65 43 0.0 0.0 0.00 0.00 0.00 94 1014.2
20260510090035 65 13 0.0 0.0 0.00 0.00 0.00 94 1014.3
20260510090024 65 43 0.0 0.0 0.00 0.00 0.00 94 1014.1
20260510084534 66 13 0.0 1.0 0.00 0.00 0.00 95 1013.9
20260510084527 66 43 0.0 1.0 0.00 0.00 0.00 94 1013.8
20260510083048 66 6 0.0 0.0 0.00 0.00 0.00 95 1013.6
20260510083025 66 36 0.0 0.0 0.00 0.00 0.00 94 1013.5
20260510081529 66 6 0.0 1.0 0.00 0.00 0.00 95 1013.4
20260510081512 66 36 0.0 1.0 0.00 0.00 0.00 94 1013.2
20260510080029 66 5 0.0 2.0 0.00 0.00 0.00 95 1013.5
20260510080007 66 35 0.0 2.0 0.00 0.00 0.00 94 1013.3
20260510074628 66 27 0.0 0.0 0.00 0.00 0.00 95 1013.2
20260510074505 66 57 0.0 0.0 0.00 0.00 0.00 94 1013.1
20260510073027 66 28 0.0 0.0 0.00 0.00 0.00 95 1013.2
20260510073019 66 58 0.0 0.0 0.00 0.00 0.00 94 1013.1
20260510071533 66 27 0.0 0.0 0.00 0.00 0.00 94 1013.1
20260510071518 66 58 0.0 0.0 0.00 0.00 0.00 93 1013.0
20260510070024 66 28 0.0 0.0 0.00 0.00 0.00 93 1013.3
20260510070020 66 58 0.0 0.0 0.00 0.00 0.00 93 1013.1
20260510064535 66 57 0.0 0.0 0.00 0.00 0.00 92 1013.3
20260510064522 66 28 0.0 0.0 0.00 0.00 0.00 93 1013.3
20260510063020 67 28 0.0 0.0 0.00 0.00 0.00 92 1013.3
20260510063013 67 58 0.0 0.0 0.00 0.00 0.00 91 1013.1
20260510061519 67 27 0.0 0.0 0.00 0.00 0.00 91 1013.3
20260510061508 67 57 0.0 0.0 0.00 0.00 0.00 91 1013.3
20260510060033 67 28 0.0 0.0 0.00 0.00 0.00 92 1013.6
20260510060019 68 58 0.0 0.0 0.00 0.00 0.00 91 1013.5
20260510054523 67 27 0.0 0.0 0.00 0.00 0.00 90 1013.3
20260510053036 68 58 0.0 0.0 0.00 0.00 0.00 89 1013.3
20260510053013 68 28 0.0 0.0 0.00 0.00 0.00 90 1013.4
20260510051516 68 76 0.0 0.0 0.00 0.00 0.00 90 1013.0
20260510051514 68 43 0.0 0.0 0.00 0.00 0.00 90 1013.1
20260510050017 68 81 0.0 0.0 0.00 0.00 0.00 87 1012.8
20260510050008 68 51 0.0 0.0 0.00 0.00 0.00 88 1012.9
20260510044523 68 81 0.0 0.0 0.00 0.00 0.00 87 1012.7
20260510044508 68 51 0.0 0.0 0.00 0.00 0.00 87 1012.8
20260510043022 69 81 0.0 0.0 0.00 0.00 0.00 86 1012.6
20260510043010 69 51 0.0 0.0 0.00 0.00 0.00 86 1012.7
20260510041524 69 81 0.0 0.0 0.00 0.00 0.00 84 1012.5
20260510041505 69 51 0.0 0.0 0.00 0.00 0.00 85 1012.7
20260510040023 70 81 0.0 0.0 0.00 0.00 0.00 83 1012.4
20260510040004 70 51 0.0 0.0 0.00 0.00 0.00 84 1012.5
20260510034518 70 81 0.0 0.0 0.00 0.00 0.00 81 1012.3
20260510034507 70 51 0.0 0.0 0.00 0.00 0.00 82 1012.4
20260510033019 71 81 0.0 0.0 0.00 0.00 0.00 80 1012.4
20260510033002 71 51 0.0 0.0 0.00 0.00 0.00 81 1012.5
20260510031530 71 80 0.0 0.0 0.00 0.00 0.00 80 1012.3
20260510031503 71 50 0.0 0.0 0.00 0.00 0.00 80 1012.5
20260510030023 71 80 0.0 0.0 0.00 0.00 0.00 79 1012.1
20260510030003 71 50 0.0 0.0 0.00 0.00 0.00 79 1012.2
20260510024525 72 80 0.0 0.0 0.00 0.00 0.00 78 1011.8
20260510024501 72 50 0.0 0.0 0.00 0.00 0.00 78 1011.9
20260510023100 72 50 0.0 0.0 0.00 0.00 0.00 77 1011.8
20260510023026 72 80 0.0 0.0 0.00 0.00 0.00 76 1011.6
20260510021608 73 50 0.0 0.0 0.00 0.00 0.00 75 1011.5
20260510021529 73 80 0.0 0.0 0.00 0.00 0.00 75 1011.4
20260510020058 73 51 0.0 0.0 0.00 0.00 0.00 76 1011.3
20260510020028 73 81 0.0 0.0 0.00 0.00 0.00 75 1011.2
20260510014600 74 50 0.0 0.0 0.00 0.00 0.00 74 1011.2
20260510014525 74 80 0.0 0.0 0.00 0.00 0.00 74 1011.1
20260510013059 75 50 0.0 0.0 0.00 0.00 0.00 73 1011.1
20260510013027 75 80 0.0 0.0 0.00 0.00 0.00 73 1011.0
20260510011557 75 53 0.0 0.0 0.00 0.00 0.00 73 1010.9
20260510011526 75 83 0.0 0.0 0.00 0.00 0.00 73 1010.8
20260510010100 76 53 0.0 0.0 0.00 0.00 0.00 71 1010.8
20260510010027 76 83 0.0 0.0 0.00 0.00 0.00 70 1010.6
20260510004557 78 53 0.0 1.0 0.00 0.00 0.00 69 1010.6
20260510004527 78 83 0.0 1.0 0.00 0.00 0.00 68 1010.5
20260510003059 80 53 0.0 0.0 0.00 0.00 0.00 63 1010.5
20260510003022 80 83 0.0 0.0 0.00 0.00 0.00 63 1010.3
20260510001554 83 52 0.0 0.0 0.00 0.00 0.00 59 1010.2
20260510001526 83 81 0.0 0.0 0.00 0.00 0.00 59 1010.1
20260510000054 84 43 0.0 1.0 0.00 0.00 0.00 54 1010.0
20260510000028 84 73 0.0 1.0 0.00 0.00 0.00 54 1010.0
20260509234555 83 358 0.0 1.0 0.00 0.00 0.00 54 1009.8
20260509234528 83 27 0.0 1.0 0.00 0.00 0.00 54 1009.9
20260509233052 82 12 0.0 1.0 0.00 0.00 0.00 54 1009.8
20260509233025 82 41 0.0 1.0 0.00 0.00 0.00 54 1009.8
20260509231552 82 41 0.0 0.0 0.00 0.00 0.00 57 1009.7
20260509231503 82 71 0.0 0.0 0.00 0.00 0.00 56 1009.7
20260509230057 83 41 0.0 1.0 0.00 0.00 0.00 55 1009.7
20260509230005 83 71 0.0 1.0 0.00 0.00 0.00 54 1009.7
20260509224555 84 41 0.0 1.0 0.00 0.00 0.00 52 1009.6
20260509224503 84 66 0.0 1.0 0.00 0.00 0.00 50 1009.6
20260509223052 84 36 0.0 0.0 0.00 0.00 0.00 54 1009.6
20260509223016 84 66 0.0 0.0 0.00 0.00 0.00 52 1009.5
20260509221549 84 41 0.0 0.0 0.00 0.00 0.00 52 1009.5
20260509221517 84 77 0.0 0.0 0.00 0.00 0.00 52 1009.4
20260509220049 84 25 0.0 0.0 0.00 0.00 0.00 50 1009.5
20260509220011 84 55 0.0 1.0 0.00 0.00 0.00 50 1009.4
20260509214549 85 36 0.0 1.0 0.00 0.00 0.00 48 1009.4
20260509214508 85 66 0.0 0.0 0.00 0.00 0.00 46 1009.4
20260509213102 86 37 0.0 0.0 0.00 0.00 0.00 51 1009.4
20260509213005 86 62 0.0 0.0 0.00 0.00 0.00 50 1009.4
20260509211546 86 46 0.0 1.0 0.00 0.00 0.00 48 1009.5
20260509211523 86 92 0.0 1.0 0.00 0.00 0.00 47 1009.5
20260509210100 86 12 0.0 1.0 0.00 0.00 0.00 49 1009.5
20260509210018 86 42 0.0 1.0 0.00 0.00 0.00 49 1009.5
20260509204544 86 51 0.0 1.0 0.00 0.00 0.00 49 1009.7
20260509204518 86 78 0.0 1.0 0.00 0.00 0.00 49 1009.7
20260509203042 85 27 0.0 1.0 0.00 0.00 0.00 49 1009.7
20260509203024 85 57 0.0 1.0 0.00 0.00 0.00 49 1009.7
20260509201538 83 21 0.0 1.0 0.00 0.00 0.00 52 1010.0
20260509201512 83 52 0.0 4.0 0.00 0.00 0.00 50 1010.0
20260509200038 83 60 0.0 7.0 0.00 0.00 0.00 49 1010.5
20260509200005 83 95 0.0 7.0 0.00 0.00 0.00 49 1010.3
20260509194536 85 349 0.0 1.0 0.00 0.00 0.00 48 1010.6
20260509194530 85 43 0.0 1.0 0.00 0.00 0.00 48 1010.4
20260509193040 83 42 0.0 2.0 0.00 0.00 0.00 52 1010.6
20260509193023 83 71 0.0 2.0 0.00 0.00 0.00 51 1010.5
20260509191539 82 15 0.0 1.0 0.00 0.00 0.00 53 1010.7
20260509191518 82 46 0.0 1.0 0.00 0.00 0.00 49 1010.6
20260509190032 84 17 0.0 1.0 0.00 0.00 0.00 52 1010.7
20260509190013 84 47 0.0 1.0 0.00 0.00 0.00 52 1010.7
20260509184533 83 30 0.0 1.0 0.00 0.00 0.00 55 1010.7
20260509184514 83 76 0.0 0.0 0.00 0.00 0.00 55 1010.6
20260509183030 81 32 0.0 2.0 0.00 0.00 0.00 55 1011.0
20260509183009 81 62 0.0 2.0 0.00 0.00 0.00 55 1010.9
20260509181527 80 32 0.0 0.0 0.00 0.00 0.00 59 1011.0
20260509181523 80 2 0.0 0.0 0.00 0.00 0.00 59 1011.2
20260509180021 78 282 0.0 1.0 0.00 0.00 0.00 59 1011.0
20260509180018 79 252 0.0 1.0 0.00 0.00 0.00 59 1011.2
20260509174537 78 65 0.0 2.0 0.00 0.00 0.00 59 1011.2
20260509174518 78 35 0.0 2.0 0.00 0.00 0.00 60 1011.4
20260509173019 78 12 0.0 1.0 0.00 0.00 0.00 59 1011.4
20260509171514 77 36 0.0 4.0 0.00 0.00 0.00 58 1011.5
20260509171512 77 66 0.0 4.0 0.00 0.00 0.00 58 1011.2
20260509170014 77 54 0.0 2.0 0.00 0.00 0.00 63 1011.6
20260509170012 77 89 0.0 2.0 0.00 0.00 0.00 63 1011.3
20260509164528 75 28 1.0 7.0 0.00 0.00 0.00 67 1011.2
20260509164508 75 358 1.0 7.0 0.00 0.00 0.00 67 1011.6
20260509163036 75 20 0.0 1.0 0.00 0.00 0.00 69 1011.1
20260509163005 75 351 0.0 1.0 0.00 0.00 0.00 70 1011.5
20260509161529 74 17 0.0 5.0 0.00 0.00 0.00 70 1011.2
20260509161503 74 347 0.0 3.0 0.00 0.00 0.00 70 1011.5
20260509160019 73 7 1.0 7.0 0.00 0.00 0.00 72 1011.2
20260509154610 72 334 0.0 6.0 0.00 0.00 0.00 74 1011.5
20260509154515 72 13 0.0 6.0 0.00 0.00 0.00 74 1011.2